Volver al catálogo

BREEZE-M DEB

TANK

ActivoHEO
NORAD 29649·DEBRIS·🇷🇺 Russia

Lanzado Dec 11, 2006 desde Baikonur Cosmodrome

Loading…

Próximos Pases (próximas 24 horas)

TLE

ActualizadoSource: Space-Track

Época: Sep 14, 2026, 10:54 UTC

1 29649U 06056B   26257.45435585  .00002671  00000-0  65354-3 0  9990
2 29649  49.5038 227.7288 5232631 154.7971 244.3591  5.21698049359158

Sigue BREEZE-M DEB en tiempo real con AllMySat

Download on the App Store